RH
56 60 62 65 68 71 74 77 78 76 73 71 68 66 68 73 80 90 95 84 64 48 39 33 35 38 36 34 32 27 25 24 23 23 23 23 23 25 28 30 32 33 35 39 45 57 76 94 101 102 100 92 83 80 78 80 84 78 63 58 73 91 98 97 93 88 83 77 73 70 67 69 74 76 78 78 74 68 66 64 59 55 51 47 46
55 57 59 61 63 66 70 74 76 77 76 72 64 59 58 61 67 80 89 78 55 39 33 28 25 25 25 25 24 24 24 23 23 23 23 23 23 24 27 30 32 34 37 41 45 54 71 90 100 102 101 96 90 84 80 80 80 72 59 57 75 95 102 99 95 91 86 79 74 71 69 71 76 80 81 80 74 68 66 66 63 59 54 49 47
54 56 56 55 54 57 60 63 65 69 72 73 71 64 58 55 53 57 63 58 40 27 25 24 23 22 21 21 23 23 23 23 23 23 22 22 22 23 27 30 32 35 39 42 45 51 67 89 101 102 102 100 91 80 74 73 69 63 60 66 83 97 99 99 98 94 88 81 76 74 73 74 78 81 80 78 73 68 66 67 66 63 57 51 49
53 55 55 54 54 56 58 60 62 65 68 71 76 78 72 64 58 53 49 43 33 24 21 20 21 21 20 21 22 22 22 23 22 23 22 22 22 23 27 30 32 36 40 42 44 49 65 88 101 101 102 102 91 76 67 63 62 66 72 78 85 89 94 99 100 96 88 80 76 77 77 78 81 81 78 75 71 67 65 67 69 67 60 52 49
51 52 53 54 54 55 56 56 56 61 72 75 71 75 80 73 65 61 53 43 34 25 21 19 19 19 19 20 21 21 22 22 22 22 23 23 23 24 27 30 32 37 41 43 44 47 62 88 102 102 104 104 93 76 66 65 76 87 86 82 81 85 95 101 101 97 89 78 77 80 82 83 83 80 77 72 69 68 66 67 71 70 63 56 51
45 48 51 53 54 55 53 51 47 48 64 80 74 67 71 72 67 63 55 44 35 27 21 18 17 18 19 20 21 21 21 22 23 23 23 24 25 25 27 29 33 38 42 43 43 45 58 84 102 102 103 105 96 83 78 82 94 101 96 92 93 95 99 102 102 100 90 81 82 85 85 86 83 77 75 71 68 68 67 68 73 72 66 59 52
47 45 47 48 49 49 46 46 46 40 49 73 81 70 64 65 62 58 50 40 32 26 21 18 18 19 20 21 21 22 23 24 24 24 25 25 26 25 26 29 32 37 40 42 44 43 51 76 101 106 103 104 100 94 92 92 96 100 101 101 102 100 100 102 104 103 95 88 89 90 87 86 81 75 73 70 68 69 68 69 74 74 69 61 53
68 62 58 55 54 54 52 51 51 47 47 61 72 68 62 58 53 49 42 34 29 24 20 19 19 19 20 21 22 23 24 25 25 25 26 26 27 26 26 29 31 34 38 41 43 42 44 63 93 109 106 102 103 102 100 97 95 97 100 101 102 101 100 102 104 104 100 96 95 93 89 85 78 73 72 72 72 74 70 69 75 77 72 64 55
74 74 72 70 68 66 64 60 56 53 52 54 55 54 52 49 44 39 34 29 26 23 21 20 19 20 21 22 23 24 25 26 26 26 25 26 26 26 27 30 32 33 37 40 41 41 41 48 73 101 109 106 104 104 103 102 99 99 99 98 100 100 99 101 102 101 102 99 97 94 88 81 76 71 71 75 78 79 74 68 75 82 76 67 58
51 54 56 57 57 56 53 52 50 48 47 45 44 42 41 39 36 32 28 25 23 22 21 21 21 21 22 23 24 26 26 27 26 25 25 25 25 26 28 31 32 33 36 39 40 40 41 42 52 76 99 106 105 102 103 104 103 102 101 96 95 97 99 101 101 100 101 99 95 92 83 75 74 72 73 79 82 82 76 69 76 86 81 69 59
34 35 37 37 38 38 37 37 38 38 38 37 35 35 33 32 30 27 25 23 23 22 22 22 23 23 24 25 26 27 27 26 26 25 24 24 25 27 29 31 34 35 36 39 40 40 42 43 43 54 73 89 98 101 101 103 104 105 103 99 95 98 101 101 100 101 102 100 96 89 79 75 78 79 78 82 85 84 75 69 78 88 83 71 62
32 32 33 32 31 31 30 29 29 29 30 29 28 28 27 27 26 25 24 24 24 25 25 25 25 25 26 27 27 27 27 25 25 25 25 25 26 27 30 33 35 36 37 39 41 41 41 43 45 49 54 67 87 100 100 100 102 102 103 103 100 100 102 101 101 102 101 102 99 91 83 82 85 85 84 85 87 84 72 69 81 90 85 73 64
36 36 35 34 34 33 31 31 30 29 29 28 27 28 27 28 28 26 27 28 28 29 28 27 27 27 27 27 27 27 27 26 26 27 27 26 26 28 32 35 35 36 37 38 40 43 42 42 45 48 48 58 82 100 101 98 101 101 100 101 100 100 101 100 101 102 101 104 105 98 92 91 89 88 86 88 92 84 70 73 87 92 85 75 67
41 41 40 39 38 37 36 35 33 32 32 32 32 32 31 31 30 30 30 30 31 31 30 29 29 28 28 28 28 29 29 28 29 31 31 30 29 31 33 35 36 36 36 38 41 42 42 42 44 46 46 49 63 87 101 100 100 102 100 100 100 99 101 100 100 101 103 106 107 102 96 92 90 89 86 91 98 84 69 80 94 91 84 77 69
45 45 45 45 44 43 41 40 38 36 35 34 35 35 34 34 33 33 33 33 33 33 32 33 33 32 31 31 31 32 30 31 32 34 36 35 33 33 34 35 37 36 38 41 42 42 43 44 45 46 48 42 42 72 102 101 96 103 102 99 101 101 99 100 99 100 102 103 103 101 97 92 90 90 87 93 99 83 72 89 97 89 86 80 70
38 40 41 44 45 46 46 45 43 42 40 39 39 38 38 39 39 39 39 38 39 37 36 36 35 35 36 35 35 35 33 34 35 36 37 37 36 36 35 35 36 37 40 40 41 44 44 43 46 49 52 46 39 57 80 79 83 103 105 99 102 103 100 99 98 98 100 99 100 100 96 92 92 93 90 96 97 82 79 95 97 88 88 82 68
24 26 29 32 34 37 40 42 43 45 45 44 44 44 44 43 43 44 44 44 44 43 41 40 38 38 38 38 38 39 36 36 37 37 38 38 39 39 37 38 39 39 42 42 42 45 43 41 47 52 54 52 43 45 49 45 63 97 106 100 100 99 98 99 97 96 98 98 99 99 95 93 97 96 94 96 96 87 87 97 95 89 89 81 68
18 18 18 19 21 22 25 27 29 32 35 37 40 41 42 43 43 44 45 44 45 44 44 43 42 41 41 40 41 40 39 40 39 38 39 39 40 41 40 41 41 41 44 44 41 42 43 43 45 49 57 59 50 44 36 27 50 92 106 101 100 98 97 99 98 98 100 100 101 100 97 97 99 98 96 97 97 96 95 97 94 90 89 81 68
20 19 17 17 17 17 17 18 18 19 20 22 24 26 28 29 31 31 32 33 34 34 35 37 38 39 41 42 43 42 42 43 41 41 42 40 40 40 38 38 40 42 43 41 38 38 39 41 44 48 53 53 49 52 48 43 67 100 106 100 101 100 98 99 99 100 100 99 100 97 95 97 99 99 99 98 100 102 100 97 95 92 89 81 68
21 21 21 20 20 20 20 19 18 18 18 17 17 18 19 19 18 18 18 19 20 20 21 22 23 26 29 31 34 36 37 38 38 38 37 37 35 32 31 32 33 33 32 32 31 29 29 37 44 41 39 46 63 81 85 82 93 105 102 100 103 101 100 100 99 99 98 97 97 93 92 96 99 100 100 99 102 106 102 98 97 94 90 81 68
24 24 24 23 23 23 23 23 22 21 20 19 19 19 19 18 17 16 16 15 15 14 14 14 15 15 16 17 19 21 22 23 25 25 25 26 24 21 20 21 21 21 22 21 20 20 22 29 33 35 48 71 89 99 100 99 101 101 100 102 102 100 99 98 94 94 94 94 93 92 94 99 101 101 101 99 101 105 104 100 99 96 91 81 67
30 29 28 27 26 26 26 26 24 23 22 22 21 20 21 20 19 18 18 17 16 16 15 15 14 13 13 13 12 13 13 13 13 14 14 14 13 12 13 13 12 13 12 11 14 16 14 18 35 60 86 100 98 94 96 100 100 100 100 101 100 98 98 95 94 94 94 93 94 95 98 101 101 101 101 99 101 104 104 101 99 97 91 78 64
33 34 34 32 31 30 30 28 27 26 25 25 23 23 22 21 20 20 20 19 20 20 19 18 18 17 16 16 15 14 13 12 11 11 11 10 10 10 9 8 9 10 11 13 14 9 12 35 71 96 105 104 99 95 95 98 99 99 100 101 100 100 99 98 98 98 96 95 97 99 100 101 101 101 100 100 102 103 102 101 99 97 89 75 63
35 37 37 37 36 34 33 33 32 31 29 28 27 26 24 22 22 21 21 22 22 22 23 23 21 20 19 18 18 17 15 14 14 13 12 12 10 9 9 10 10 9 10 10 6 12 40 78 101 104 101 102 102 97 96 99 101 100 101 101 100 101 102 100 99 99 99 99 99 100 101 100 100 101 100 100 101 101 101 100 99 95 85 71 62
34 36 37 38 38 38 37 36 36 35 34 32 31 30 28 26 24 23 23 23 22 23 25 24 23 22 21 19 19 17 16 16 16 15 15 13 12 13 13 10 9 14 23 27 31 50 82 102 103 100 101 102 99 97 99 102 102 101 101 101 100 102 102 98 96 99 100 100 100 100 101 101 100 100 101 100 100 101 101 99 97 92 81 69 62
34 34 35 36 37 38 37 36 35 35 36 35 34 35 33 30 27 26 25 25 25 26 26 25 25 24 22 20 18 16 15 15 14 15 15 14 16 15 11 15 34 59 76 82 85 92 100 101 99 103 104 99 96 99 101 101 101 102 101 99 100 103 102 97 97 100 100 99 101 101 100 101 101 100 100 101 100 101 100 98 96 89 77 68 62
35 34 33 34 35 34 33 33 33 33 34 35 35 35 34 32 30 28 26 26 27 27 27 27 26 24 22 21 18 14 15 20 23 21 16 15 16 11 15 44 80 97 100 101 101 102 102 100 100 103 102 97 96 99 101 102 102 100 100 102 102 101 98 97 98 100 100 100 101 101 100 101 101 100 100 101 101 102 101 98 94 86 76 68 61
34 34 33 32 32 32 32 32 32 32 33 35 34 33 33 32 30 28 28 28 27 28 29 28 26 25 23 20 16 13 17 27 33 26 15 14 13 8 29 73 97 93 92 98 100 101 103 102 102 102 101 98 97 98 101 103 101 99 101 104 103 99 96 98 100 100 100 100 101 101 101 101 100 100 100 101 101 101 101 98 93 84 74 67 60
28 30 31 30 29 30 31 30 31 32 33 33 34 33 32 30 29 29 29 27 27 29 29 27 26 25 21 17 17 16 15 18 22 17 11 14 12 11 40 82 93 85 88 95 95 100 104 103 103 103 100 99 99 98 99 101 101 101 101 102 103 101 98 99 101 100 99 100 101 101 100 100 100 100 100 100 101 101 100 98 92 82 73 66 59
26 26 26 26 26 27 27 29 30 30 31 32 33 33 31 29 28 27 26 26 27 28 28 28 26 22 19 18 17 14 15 16 16 14 14 14 11 21 56 88 95 92 95 93 93 100 103 101 103 104 102 102 100 95 96 101 101 100 100 100 101 101 99 100 101 100 100 101 101 100 101 100 100 100 100 100 101 101 100 96 90 80 71 64 57
24 23 22 22 22 22 24 26 27 28 30 33 34 35 33 29 27 26 26 26 27 27 28 27 24 21 21 17 16 24 33 28 17 14 13 10 17 48 85 101 99 99 102 98 95 97 98 99 103 103 103 104 99 93 97 102 101 99 100 100 99 99 100 101 100 99 101 102 100 100 101 100 100 100 101 100 101 101 99 95 88 78 69 62 56
20 19 19 19 19 21 22 24 26 29 32 35 38 38 34 30 28 27 26 26 26 27 27 26 25 22 17 20 44 71 70 40 16 12 13 20 47 84 104 104 99 100 102 101 99 98 99 101 101 101 103 104 98 95 98 102 102 101 100 98 99 100 101 100 100 100 101 100 100 101 101 100 100 100 100 101 102 100 98 94 85 74 67 62 56
15 16 16 16 18 19 21 23 26 29 31 35 38 38 34 31 30 28 27 28 27 26 26 25 23 18 21 48 87 96 63 25 11 12 21 47 82 101 99 97 101 103 102 102 102 101 101 100 100 101 103 101 99 99 100 100 101 101 99 99 100 101 100 101 100 100 100 100 100 101 100 100 100 100 101 102 101 100 98 91 81 72 66 61 54
15 14 14 15 17 17 19 22 24 26 30 34 37 37 35 31 29 28 28 27 25 25 27 25 22 26 48 84 99 74 40 34 41 44 54 78 95 94 92 97 100 100 100 102 102 101 102 102 101 101 99 100 102 103 99 97 99 99 99 101 101 100 101 101 100 100 100 100 101 101 100 100 100 100 101 101 100 99 97 88 78 71 66 60 53
22 18 16 16 17 17 19 20 21 24 29 34 39 40 35 29 27 26 24 23 26 29 26 22 31 55 82 97 88 64 60 79 90 87 92 100 96 93 99 102 98 98 101 101 101 103 103 101 100 100 100 101 101 100 98 99 100 99 98 98 98 99 100 100 99 100 101 100 101 101 99 100 101 101 101 101 100 99 95 86 76 70 65 59 54
39 35 31 27 25 24 22 21 22 26 30 37 43 41 33 28 26 23 22 24 26 25 26 40 67 88 93 90 90 89 91 99 102 100 101 100 95 95 100 100 98 100 101 99 99 103 103 100 99 99 101 102 101 99 99 100 100 99 99 98 97 98 99 99 99 100 101 101 101 100 99 100 101 101 101 100 100 99 93 84 76 70 64 58 54
53 53 51 47 43 40 34 29 29 30 35 43 47 40 31 27 24 21 24 26 21 29 56 83 93 86 76 78 92 102 100 99 100 99 98 100 100 99 96 96 97 99 98 98 100 102 103 102 100 98 99 103 104 103 101 101 100 99 100 99 98 98 99 100 100 101 101 101 100 99 100 101 101 101 101 101 100 98 91 82 75 69 63 58 54
55 56 57 55 52 50 48 45 41 40 43 50 49 38 29 25 21 22 25 23 26 54 90 97 81 73 81 89 92 96 99 101 101 99 99 101 103 101 99 98 98 98 99 100 101 103 103 100 97 96 97 100 102 102 102 101 101 101 100 99 99 100 100 101 101 101 101 100 99 100 101 101 101 101 101 101 100 97 89 81 74 67 62 58 54
53 52 52 52 50 49 50 52 51 48 49 51 46 35 26 23 23 24 25 30 49 81 102 97 86 91 102 100 93 95 103 102 99 100 102 100 99 100 100 99 99 100 102 102 102 103 101 95 92 96 99 100 101 103 101 99 99 100 100 100 100 100 101 101 101 101 100 99 100 101 101 101 102 101 101 101 100 95 86 79 72 66 61 58 55
59 55 51 49 48 46 49 55 56 51 46 43 38 30 25 24 25 25 31 47 69 86 98 105 103 97 98 100 99 99 99 93 89 92 97 97 99 102 101 100 101 101 100 101 102 101 98 95 96 99 101 100 101 102 101 100 99 99 99 100 100 101 101 101 100 99 99 100 101 102 102 102 101 100 101 102 98 91 84 77 70 65 62 58 56
69 64 57 52 50 51 55 59 57 47 40 37 32 27 26 27 25 30 46 62 69 77 96 111 100 83 88 104 106 100 97 95 93 94 96 97 100 103 103 103 104 101 99 100 100 99 99 99 99 100 100 101 102 102 101 101 100 99 100 101 101 101 101 100 100 99 100 102 103 102 101 101 100 101 102 100 94 88 82 75 68 64 61 59 57
67 65 62 57 54 53 53 51 44 34 30 30 27 26 31 28 23 39 68 77 67 71 97 109 95 81 88 99 100 98 101 102 100 101 102 102 102 102 102 102 101 98 97 98 99 100 101 101 100 101 102 101 101 100 99 99 100 100 100 100 101 101 101 100 100 100 102 103 103 102 102 101 101 100 99 96 91 86 80 72 67 64 62 60 59
62 61 61 58 53 51 50 49 40 29 25 26 25 29 35 29 25 50 86 91 75 78 97 104 96 93 96 96 97 100 103 103 102 104 104 103 101 99 98 99 100 100 101 102 102 102 102 101 101 102 102 102 101 100 99 100 100 100 100 100 100 100 101 100 100 102 103 103 103 103 102 100 99 99 97 94 89 84 77 71 67 65 63 62 60
60 59 59 55 53 54 55 52 41 28 25 29 31 34 37 30 29 56 92 98 85 88 99 101 99 101 100 96 97 99 100 102 103 101 100 101 100 99 99 101 101 100 101 102 102 101 100 101 101 101 100 101 101 100 100 100 99 99 100 100 100 100 101 101 102 103 103 102 102 101 99 98 97 96 94 92 87 81 75 71 68 66 65 63 61
59 60 59 55 55 57 52 44 36 33 33 36 36 38 38 32 32 56 90 101 96 96 101 101 101 102 100 99 99 98 97 100 101 99 100 102 100 97 97 99 98 98 100 100 101 101 100 100 99 99 99 99 97 97 98 98 98 99 100 101 102 102 101 100 102 104 102 100 98 97 97 97 96 94 93 90 85 80 75 72 70 68 66 64 62
60 60 60 60 59 53 43 38 43 46 43 40 40 42 41 34 33 51 81 99 101 100 101 101 102 102 102 103 103 100 98 99 100 100 101 102 101 99 98 98 99 100 101 101 100 101 100 98 96 96 96 95 95 96 98 99 99 100 101 102 103 103 100 100 103 102 98 96 96 97 97 96 95 94 92 88 83 79 75 73 71 70 67 65 62
60 61 64 64 59 50 44 48 55 55 47 43 44 45 42 36 33 44 68 91 102 102 100 100 101 102 100 100 100 101 102 102 101 101 101 100 101 100 100 99 101 101 100 99 99 98 98 98 97 95 94 94 95 96 99 101 101 101 101 102 101 100 99 100 99 96 94 95 97 98 98 97 95 94 90 85 81 78 76 73 72 71 69 65 62
62 65 69 68 62 56 57 63 64 57 48 45 46 45 42 37 33 36 54 80 99 105 102 99 100 101 99 96 95 97 99 99 99 99 99 99 101 101 100 99 100 100 99 99 99 97 97 98 97 97 99 100 101 100 101 101 100 98 96 95 94 94 95 97 96 95 96 98 99 100 100 98 95 91 86 82 80 78 75 74 73 71 69 66 63
67 71 77 77 70 63 64 66 62 53 46 46 48 50 46 40 33 33 46 69 92 105 105 101 100 101 101 100 100 100 101 101 99 97 96 98 100 101 101 100 100 100 100 101 101 101 101 101 100 102 103 103 104 104 103 99 95 91 89 89 91 95 98 100 100 99 99 100 100 101 99 95 91 86 83 81 79 77 74 72 71 70 69 67 63
71 78 84 81 72 65 65 65 60 52 46 44 47 52 52 46 40 38 44 58 80 97 103 102 102 102 101 101 102 101 100 102 102 101 101 101 101 100 100 100 100 100 100 101 102 102 101 100 100 101 102 103 104 104 102 99 97 96 96 97 98 100 101 101 101 101 100 100 99 97 94 91 87 83 80 78 75 73 71 70 70 70 70 67 63
79 81 77 70 65 65 67 64 59 53 48 45 45 50 54 52 49 48 51 58 72 89 100 103 103 103 102 102 100 98 99 102 104 104 103 103 102 101 101 102 102 102 103 104 104 105 106 106 106 106 107 107 106 103 101 101 100 99 100 100 100 100 100 101 101 100 99 97 94 91 88 85 81 78 74 71 68 68 70 71 71 71 69 67 65
Wind_Speed
25 24 24 23 23 23 22 23 23 24 24 23 23 22 22 23 24 25 27 27 25 23 21 20 21 23 24 25 26 28 28 29 29 30 30 31 32 32 34 35 37 38 40 41 43 45 46 47 46 44 42 38 30 24 23 24 26 29 30 30 29 30 33 37 42 46 49 52 56 59 63 65 66 67 68 70 74 77 78 79 82 84 85 85 82
28 27 27 26 26 25 25 25 26 26 26 25 24 23 23 24 24 25 28 28 26 25 23 22 22 25 26 26 28 29 30 31 31 32 32 33 33 33 35 36 37 39 40 42 43 46 47 48 48 46 43 39 31 25 24 26 27 30 32 32 31 32 34 38 43 47 50 53 57 60 64 66 67 68 69 72 76 80 81 81 83 85 86 87 86
32 32 31 30 29 28 28 28 28 28 29 28 27 27 26 26 26 28 29 29 28 27 25 24 25 27 28 28 29 30 31 32 33 34 34 35 35 35 36 37 38 39 41 42 44 46 48 49 50 48 43 38 33 28 26 28 30 34 36 35 34 34 35 39 43 47 50 54 58 62 65 66 67 68 71 74 78 82 83 83 84 86 88 89 88
36 36 36 34 33 32 31 31 31 31 31 31 31 30 30 29 30 30 31 31 30 30 28 27 28 29 30 30 31 32 33 34 35 36 37 37 38 37 37 38 39 40 41 43 44 46 47 49 50 49 44 38 34 31 30 32 34 36 38 37 35 34 35 39 43 47 50 53 58 62 65 66 67 69 72 76 80 83 85 85 85 87 89 91 90
39 40 40 39 38 37 35 34 34 34 33 33 33 33 33 33 32 33 33 33 33 33 31 30 31 32 33 33 33 34 35 36 37 38 39 40 40 39 39 40 40 41 42 44 45 45 47 49 50 51 46 39 35 34 34 35 35 36 38 37 34 34 35 39 43 47 51 54 58 62 64 65 67 69 73 76 80 84 86 86 87 88 90 92 92
42 42 43 42 42 41 40 39 38 37 36 36 35 35 35 35 35 35 36 36 35 35 34 33 33 34 34 35 36 36 37 38 39 39 40 41 41 40 40 41 42 42 43 45 46 46 47 48 50 52 48 39 36 37 37 35 34 37 39 37 35 34 35 39 44 49 52 55 58 61 63 64 67 70 73 76 81 85 87 87 88 89 91 93 93
44 45 45 45 45 45 44 42 41 40 39 39 38 38 37 37 37 37 37 38 37 37 36 35 35 36 36 37 38 38 39 40 41 41 41 42 42 42 41 42 42 43 44 46 46 46 47 48 50 52 48 39 37 39 40 37 36 38 40 39 36 34 36 41 46 50 53 56 59 62 63 65 67 71 74 77 81 85 87 88 89 91 93 94 95
45 46 47 47 47 47 46 44 43 42 41 41 41 40 39 39 39 39 39 39 39 38 37 37 37 38 39 39 40 40 41 42 43 42 42 43 43 43 42 43 44 44 45 46 46 46 46 47 49 50 46 40 40 43 44 41 38 39 41 39 35 35 38 44 47 51 54 57 59 62 64 66 69 72 75 78 81 85 88 89 90 92 94 95 97
46 47 47 48 48 48 46 45 44 43 43 43 43 42 41 41 42 42 42 41 41 40 39 39 40 41 41 41 41 42 44 45 44 43 43 44 44 43 43 44 45 45 46 47 47 47 46 46 48 48 45 43 45 48 48 44 41 40 39 37 35 38 43 47 49 52 55 57 60 63 65 69 72 75 77 80 83 86 89 90 90 92 94 96 99
47 48 48 49 49 48 47 46 46 45 45 45 45 44 43 43 44 44 44 44 44 42 41 42 43 43 44 44 44 45 46 47 47 45 44 45 45 44 44 45 46 46 47 49 49 48 48 47 47 47 46 47 48 49 48 44 42 41 40 38 38 41 46 49 50 52 55 58 61 64 68 72 75 78 80 81 84 87 89 89 90 92 94 96 100
49 50 50 50 50 50 49 48 48 48 48 47 47 46 46 46 46 46 47 47 47 46 45 45 45 45 46 46 46 47 48 49 49 47 47 47 46 45 45 45 46 47 48 50 50 50 49 49 49 49 48 49 50 49 47 46 46 45 45 43 41 43 48 51 51 53 56 59 63 66 71 75 78 81 83 82 84 87 89 89 90 92 94 97 100
52 52 53 52 52 53 52 51 51 51 51 50 49 48 48 48 49 49 49 49 49 50 49 48 48 48 49 49 49 50 51 51 51 50 49 49 48 47 46 46 47 48 49 51 51 51 51 51 51 50 50 52 51 49 48 49 50 49 48 46 44 46 50 50 50 53 57 61 65 69 73 77 80 82 83 83 84 87 89 89 90 92 95 98 101
55 55 56 55 55 56 56 55 55 55 55 53 52 51 51 51 52 52 51 51 52 53 53 52 51 51 52 52 52 52 53 54 54 53 52 52 50 48 47 47 48 48 49 51 52 52 52 52 52 52 52 52 52 49 48 50 51 50 48 46 46 46 47 47 50 55 59 62 66 70 74 78 81 83 83 83 85 88 89 90 91 93 96 99 102
58 58 58 58 58 58 58 59 60 59 58 56 55 55 55 55 56 55 55 55 54 55 56 55 55 55 55 55 54 55 55 56 56 56 55 54 52 50 49 48 49 50 50 52 53 53 53 53 53 53 53 53 53 51 50 50 51 51 50 47 46 45 46 49 53 57 60 64 68 71 75 79 81 82 83 83 86 88 90 90 91 94 97 100 103
61 61 61 61 61 61 61 62 63 62 61 59 58 58 58 59 59 58 58 57 57 57 58 58 58 58 58 58 58 58 58 58 58 58 58 57 54 52 51 51 51 52 52 54 55 55 55 56 56 55 55 55 55 53 51 52 53 54 52 50 49 48 50 54 57 60 63 66 70 73 77 80 80 81 82 84 87 89 90 91 92 95 98 101 103
64 65 65 65 65 64 64 64 65 65 64 62 61 61 62 62 62 61 60 59 59 59 59 59 60 60 60 60 60 60 60 61 61 61 61 60 58 55 54 53 54 54 55 57 59 58 58 58 58 57 57 57 57 55 54 55 57 56 55 53 53 55 57 59 61 63 66 69 72 75 78 79 79 80 82 84 87 90 90 91 93 95 98 101 104
65 66 67 68 68 67 67 67 67 68 67 66 65 65 66 66 65 65 64 62 61 61 61 61 61 61 61 62 62 62 62 63 64 65 65 64 62 60 58 56 56 57 58 60 61 61 61 61 59 58 59 59 58 58 59 60 59 58 56 55 56 58 59 61 63 65 68 70 73 75 77 78 78 81 83 85 88 91 91 92 94 96 99 101 104
62 63 65 65 66 66 67 68 69 70 70 69 69 69 70 70 69 69 68 67 66 65 65 64 64 63 63 63 64 64 64 65 67 68 68 68 67 65 63 61 59 59 61 63 64 65 65 63 60 60 60 60 61 62 63 62 60 58 56 55 55 56 58 59 62 65 67 71 73 75 76 77 78 81 84 86 89 91 92 93 95 96 99 101 104
57 58 59 60 60 61 63 64 66 67 69 69 70 71 71 71 72 72 71 71 71 70 69 68 68 68 67 66 66 66 66 68 70 71 71 71 71 70 68 65 63 63 64 65 66 67 66 64 62 60 61 62 63 65 64 61 57 55 53 53 54 55 56 58 61 64 67 70 73 74 75 76 79 82 84 87 90 92 93 95 96 97 99 102 105
52 52 53 54 55 56 58 59 61 62 63 65 66 67 68 68 70 71 71 71 72 72 72 72 72 72 72 70 69 69 70 71 73 74 74 74 74 74 72 69 67 66 65 67 68 68 67 66 63 62 64 64 63 62 60 56 53 51 50 52 53 55 57 59 62 66 69 71 73 74 75 76 78 82 85 89 91 93 95 96 96 97 100 102 106
48 48 49 50 50 52 54 56 57 57 59 60 61 62 63 64 66 67 68 69 70 70 71 71 72 73 73 72 71 71 72 74 75 77 77 77 77 76 74 73 70 68 67 68 69 69 67 66 64 64 64 61 57 55 53 50 49 49 50 52 54 56 58 62 65 68 70 72 73 74 74 76 79 82 86 89 91 94 96 97 97 98 101 103 107
48 48 49 49 49 50 52 54 54 54 56 57 58 59 60 60 61 62 64 65 66 67 67 68 68 69 70 70 70 70 71 72 74 75 77 78 78 76 75 74 71 68 67 68 68 68 66 63 62 61 58 55 54 53 50 47 47 49 52 54 55 58 61 65 67 69 71 72 73 73 74 76 79 83 87 90 92 95 97 96 97 99 102 104 108
50 50 50 51 50 51 52 53 53 53 54 56 57 57 58 58 59 59 59 60 61 63 64 64 64 64 65 66 66 66 67 67 68 70 72 72 73 73 72 70 66 63 63 64 65 63 59 56 55 54 52 53 54 51 47 46 49 52 54 56 58 61 63 65 67 70 71 71 71 72 74 77 80 84 87 90 93 96 96 96 97 99 102 105 109
53 52 52 52 51 52 52 52 53 54 55 56 57 57 57 57 57 56 57 57 57 58 60 62 62 62 62 62 62 63 63 62 62 63 65 66 67 67 66 63 58 55 55 57 57 53 50 51 52 50 49 51 49 45 43 47 51 54 57 58 60 63 64 66 69 70 69 69 71 72 75 78 82 85 88 90 93 95 95 95 97 99 102 106 109
56 55 54 53 53 52 52 52 54 55 56 57 58 59 59 58 56 55 55 55 55 56 57 59 60 60 60 59 59 60 59 58 58 60 60 60 60 60 59 55 48 44 45 48 48 47 48 51 52 50 48 46 42 40 43 49 53 56 58 60 62 65 66 68 69 69 68 69 71 73 76 80 83 86 88 91 93 95 95 95 96 99 102 107 109
59 57 56 55 55 54 54 54 55 56 58 59 60 61 61 60 58 56 55 54 55 55 56 57 57 57 57 58 58 57 56 55 56 56 55 54 53 52 49 42 35 36 42 47 49 51 52 51 49 47 45 42 39 41 46 52 56 58 61 63 66 67 67 68 69 68 68 69 71 74 78 82 85 87 89 91 93 94 94 94 96 99 103 107 109
61 60 59 57 57 56 56 55 56 57 59 60 61 62 63 62 61 58 56 55 55 55 55 55 55 55 55 56 56 54 51 51 53 54 51 50 48 44 40 37 40 50 59 61 58 56 52 49 48 46 43 41 43 46 51 56 61 63 64 67 69 70 69 68 68 68 68 70 73 77 80 84 86 88 89 90 92 93 93 94 96 100 104 107 109
62 63 62 61 59 58 57 57 57 57 58 60 61 63 64 64 62 60 58 57 56 54 53 53 53 53 53 54 53 51 49 49 52 52 49 47 43 40 39 44 51 58 60 57 56 58 58 56 55 49 42 41 46 50 54 60 64 65 65 67 70 72 71 69 69 69 70 73 77 81 84 86 87 88 89 90 91 92 92 94 97 101 105 107 108
64 64 64 64 62 61 60 59 58 58 58 60 61 63 64 65 63 61 59 58 57 55 54 53 52 52 51 51 50 49 47 47 48 48 46 44 40 38 41 47 52 52 47 44 49 59 62 60 56 49 43 44 49 53 56 59 62 64 66 68 71 73 74 72 72 73 76 79 83 85 86 86 87 87 88 89 90 91 92 94 98 102 105 106 107
66 66 66 66 65 64 63 61 60 59 59 59 61 62 64 64 63 61 60 58 56 55 55 55 54 52 49 48 47 45 44 43 42 41 40 36 30 28 32 38 43 44 42 43 49 56 57 53 52 51 51 53 56 57 56 56 59 64 67 68 70 73 75 76 77 79 82 84 86 86 85 85 86 87 87 89 90 90 92 94 98 102 104 105 106
69 69 69 68 67 66 65 64 62 61 60 60 60 61 63 64 63 62 60 57 56 54 54 55 54 51 49 45 40 37 36 36 35 33 29 22 18 21 30 40 45 46 45 46 50 54 55 54 55 57 58 58 59 59 59 59 62 65 66 66 69 72 75 77 80 82 83 84 84 84 84 84 85 86 87 88 89 90 91 95 99 101 103 104 106
72 72 72 71 70 68 67 66 65 63 62 61 61 62 64 64 64 62 59 56 55 54 54 53 51 49 45 38 32 30 31 30 27 22 13 7 9 23 38 48 53 53 52 51 51 55 58 59 58 58 58 56 55 57 58 61 63 63 63 64 68 71 74 77 79 81 82 83 83 82 82 83 84 85 86 88 88 89 92 95 98 100 101 103 105
75 75 74 74 73 71 70 70 68 66 64 63 63 64 65 64 62 60 57 56 55 55 53 50 48 46 41 34 30 29 27 23 20 19 18 16 22 37 47 54 59 61 60 58 56 56 60 62 61 60 58 55 52 53 54 55 58 60 62 65 69 72 75 77 79 79 80 81 81 80 81 82 83 84 86 88 88 89 93 95 98 99 100 102 105
79 78 78 77 76 76 75 73 71 68 66 65 65 66 66 64 59 56 55 55 55 54 51 48 46 43 37 33 30 28 25 23 23 26 29 34 41 45 48 52 57 59 59 58 56 56 59 61 61 61 60 57 52 49 47 48 51 55 59 64 69 72 75 77 78 79 80 80 80 80 80 81 82 84 86 87 87 90 93 95 97 98 100 102 105
81 81 81 80 80 79 79 77 74 70 68 67 66 67 66 62 56 53 52 53 52 51 50 46 41 37 34 32 30 27 27 30 32 33 36 38 37 37 41 47 52 53 53 54 55 57 59 61 60 59 59 58 54 49 47 48 50 52 56 61 66 70 73 75 76 78 80 80 80 79 79 80 83 85 85 86 88 90 93 94 96 98 99 102 105
77 78 79 80 81 81 81 79 76 73 70 68 68 68 65 59 54 52 51 50 49 48 46 41 37 36 35 33 32 32 35 40 42 43 43 39 34 35 42 48 53 56 59 59 58 56 56 57 58 59 60 59 58 55 52 51 52 54 57 61 64 67 70 73 76 79 80 80 78 78 79 81 83 83 84 86 88 90 92 94 95 97 100 102 105
66 69 72 74 77 79 80 79 77 74 71 68 68 67 62 56 53 51 48 46 45 43 39 36 36 36 35 33 34 37 40 43 44 45 45 41 38 42 48 51 53 56 57 56 53 51 52 57 63 67 66 64 62 62 61 61 62 62 62 62 64 67 71 74 77 79 79 78 77 77 79 81 82 83 84 86 88 89 91 93 94 97 100 102 104
61 64 67 69 72 75 77 78 77 74 71 69 68 65 59 54 52 49 45 43 42 39 35 34 33 32 35 39 38 37 40 45 45 42 42 40 39 41 47 50 51 51 51 52 53 56 60 66 70 70 66 62 62 63 65 67 69 69 66 65 66 69 72 75 76 77 76 75 75 77 79 80 82 83 84 85 87 89 90 92 94 97 100 102 104
65 67 69 72 73 75 77 77 75 73 71 70 67 62 56 52 51 47 43 41 41 38 33 31 28 28 36 44 43 38 38 43 43 39 40 43 44 44 47 48 49 52 55 58 62 63 64 63 62 59 58 57 57 58 60 61 63 64 64 65 66 69 71 72 73 73 73 73 75 77 79 81 82 82 83 85 87 88 89 92 95 97 100 101 104
72 72 73 75 76 77 78 77 74 71 69 67 63 60 56 53 51 46 41 41 43 40 36 35 34 31 31 36 41 37 30 30 36 42 47 52 55 57 58 58 60 63 66 68 67 64 61 58 57 57 58 58 58 59 59 58 58 59 61 63 65 67 68 69 69 70 71 73 75 78 80 81 81 82 83 85 86 87 89 92 95 97 99 101 103
76 76 75 75 75 74 73 70 67 65 65 64 62 60 57 54 51 46 43 44 46 45 42 43 44 37 27 27 35 35 31 39 50 55 56 58 60 60 60 62 65 66 66 65 64 63 62 62 62 63 63 63 63 62 61 59 58 59 61 62 64 66 66 67 68 70 72 74 77 78 79 80 80 81 83 84 85 87 90 93 95 97 99 101 103
79 77 75 73 70 67 63 61 60 62 64 64 63 61 58 56 52 48 46 47 49 49 48 48 49 43 32 27 27 29 36 55 64 59 54 55 56 56 57 60 63 62 62 63 65 66 66 66 66 67 67 67 66 63 60 58 58 59 61 62 64 66 67 68 70 72 74 76 77 77 78 79 80 82 83 84 85 88 91 94 96 97 99 101 102
81 78 74 71 69 67 65 64 64 64 63 62 60 58 57 57 54 49 48 50 53 52 51 52 53 51 44 40 37 35 40 53 62 64 64 65 65 65 67 69 70 69 68 69 69 69 69 68 68 67 65 63 61 59 57 58 59 61 62 64 66 67 69 70 72 74 75 76 77 77 79 80 81 81 83 84 87 89 92 94 96 97 99 100 102
82 78 74 72 71 71 70 69 68 65 61 58 57 56 57 58 56 51 50 53 56 56 54 55 57 57 54 53 53 51 50 53 57 62 68 73 76 77 77 76 75 74 73 72 72 72 72 71 69 66 63 61 60 59 59 60 59 60 62 64 67 69 71 73 74 75 76 76 78 79 80 80 80 82 84 86 88 90 92 94 96 97 98 100 101
81 77 73 71 70 70 69 68 66 63 58 56 56 57 57 59 59 55 53 55 59 59 59 59 61 61 60 59 57 57 59 61 61 62 64 67 71 74 75 75 74 74 75 75 75 75 75 73 71 69 66 65 63 61 60 59 58 60 63 67 70 73 75 76 76 76 77 78 79 79 79 80 82 83 85 87 90 91 93 94 96 97 98 98 100
80 76 73 71 69 68 68 66 63 60 57 56 56 57 58 60 61 58 56 58 61 63 63 63 64 65 66 65 63 61 62 63 64 65 66 67 68 70 72 73 73 73 73 72 73 73 73 72 71 69 67 66 64 63 62 62 64 66 70 73 76 78 79 78 77 78 79 80 79 79 80 82 83 85 87 89 91 92 93 94 95 96 96 98 99
80 77 74 71 69 67 65 63 62 60 58 57 57 57 57 60 62 61 60 60 62 65 65 65 65 68 70 70 69 68 68 67 67 67 67 68 69 70 70 70 69 70 69 69 69 69 68 68 68 68 67 67 67 68 69 70 71 74 76 77 79 79 79 78 78 79 79 79 79 80 81 84 86 87 89 90 91 92 93 94 94 95 96 98 99
82 79 74 70 66 63 62 61 61 60 59 59 59 58 58 59 62 64 63 61 62 64 67 67 66 67 70 72 71 71 71 71 71 70 69 69 69 69 69 68 68 68 68 67 67 67 67 66 66 66 66 67 69 70 72 73 75 76 77 78 78 78 78 78 79 79 79 79 80 82 84 86 88 89 90 91 91 92 93 93 93 95 96 97 98
83 80 76 70 65 62 61 60 60 60 59 58 57 57 57 59 62 64 65 63 62 64 66 68 69 69 70 71 73 73 72 71 71 71 71 71 70 69 68 67 66 66 66 66 67 67 67 66 66 66 67 68 70 71 72 74 75 76 77 77 77 77 77 78 78 78 79 81 83 85 86 88 89 90 90 91 91 92 92 93 94 94 95 96 97
86 83 79 74 68 65 62 60 59 59 59 57 55 54 55 58 61 64 65 65 64 64 65 66 68 70 72 74 75 75 73 72 72 72 72 72 72 72 71 70 69 68 68 68 69 69 69 68 69 69 70 71 72 73 74 76 76 76 77 77 77 77 77 78 79 81 82 84 86 87 88 89 89 90 91 91 92 92 93 93 93 93 94 95 96
84 81 78 74 69 66 64 62 60 60 60 58 56 54 54 56 59 62 63 63 64 64 64 65 66 69 73 76 77 76 75 75 75 75 76 76 76 75 74 74 74 73 72 72 72 72 72 72 73 73 74 74 75 76 76 76 77 77 77 77 77 77 78 80 83 85 86 87 88 89 89 90 90 91 92 92 93 93 93 93 92 93 93 94 95
Wind_Direction
238 241 245 249 252 255 257 260 262 264 265 267 269 270 271 271 272 274 274 276 280 283 284 287 290 292 295 298 301 304 308 310 312 315 317 318 320 322 323 324 326 330 333 335 336 338 339 339 339 338 336 335 335 333 333 332 333 335 335 332 330 330 336 342 346 348 349 350 351 353 356 357 358 359 359 358 357 355 354 353 354 353 352 352 352
241 244 247 249 252 256 259 262 264 266 267 268 270 273 274 274 273 272 273 275 278 280 281 283 285 288 291 295 299 302 305 307 310 312 314 316 317 320 322 323 325 328 331 333 334 337 339 338 337 336 333 331 331 332 332 331 331 331 330 329 328 328 331 336 342 345 347 347 348 350 352 354 356 357 357 356 354 353 352 351 352 351 351 351 351
243 246 248 251 254 256 259 262 266 268 270 271 272 274 275 276 276 274 274 276 278 281 282 282 283 286 290 294 297 300 303 305 308 310 312 313 315 319 321 323 324 326 329 331 333 336 338 337 335 334 331 328 327 328 329 330 329 329 329 329 328 327 327 331 338 341 343 344 344 346 348 351 353 354 354 353 352 350 350 350 350 350 349 349 350
246 248 251 253 255 257 259 263 266 269 271 272 272 273 275 277 277 277 277 278 280 282 283 283 284 286 290 294 296 298 301 304 306 308 311 312 315 318 320 322 323 324 327 329 330 335 338 336 334 332 330 326 325 326 329 330 330 330 330 328 326 325 324 327 333 336 337 338 339 342 345 348 351 351 351 349 348 348 348 348 348 348 348 348 349
249 251 253 255 256 257 259 262 266 269 271 272 272 271 273 275 276 278 279 280 281 282 283 284 285 287 291 293 295 297 300 302 305 308 310 312 314 317 319 320 321 322 325 326 328 333 336 335 333 331 329 326 324 326 329 331 331 330 328 325 323 323 322 323 328 331 331 332 335 339 343 346 348 348 347 346 345 346 346 347 347 347 347 347 348
251 252 254 256 257 258 260 262 265 268 270 271 271 271 271 273 274 277 279 280 281 282 283 285 286 288 290 292 294 297 299 301 304 307 309 311 313 315 317 319 320 321 322 324 326 331 335 334 332 331 329 325 324 326 328 330 329 326 324 320 319 320 319 321 325 326 327 329 332 336 341 344 344 343 343 343 343 343 345 345 345 346 346 346 346
251 253 254 256 258 260 261 263 265 267 267 268 270 270 271 272 273 275 277 279 281 282 283 284 285 287 289 290 293 296 298 300 302 305 308 309 311 313 315 316 318 319 320 321 323 328 333 333 331 331 330 325 323 324 326 326 324 321 319 317 316 316 318 321 323 324 325 327 331 335 338 339 339 338 338 339 340 342 343 344 344 344 344 345 345
250 253 255 256 258 260 262 264 265 266 266 266 268 269 271 272 273 274 275 277 279 280 281 282 283 284 286 289 292 295 296 298 300 304 307 307 308 310 312 313 314 316 317 318 320 325 330 331 330 330 329 324 322 323 323 323 320 316 314 314 313 313 315 319 322 323 325 328 331 333 334 334 334 334 335 337 339 340 342 343 343 343 343 343 344
250 253 255 256 257 259 261 263 264 265 265 266 267 269 270 272 273 274 275 276 276 277 279 280 281 282 284 287 290 293 294 296 298 302 305 305 306 308 310 311 311 313 314 315 317 321 325 328 328 329 328 323 320 320 321 320 318 315 313 313 313 313 314 316 320 323 327 329 330 330 330 330 330 330 332 335 338 339 341 342 342 343 343 342 343
250 252 254 255 257 259 260 262 263 264 265 266 268 269 270 271 272 274 274 275 276 276 277 278 280 281 284 287 289 291 292 294 297 300 302 302 304 306 308 309 309 310 311 312 315 318 321 323 324 325 325 322 320 320 320 319 318 317 315 313 311 312 313 314 317 322 326 327 327 327 326 326 327 327 329 333 336 338 340 341 341 341 342 341 341
250 252 254 256 258 259 260 261 262 263 264 264 266 267 268 270 271 272 273 275 276 277 277 278 280 282 284 286 288 289 291 294 296 298 299 300 302 303 305 306 306 307 309 310 312 316 318 319 320 321 322 321 320 319 317 316 316 315 314 311 307 308 311 312 315 320 324 324 324 324 323 323 324 325 328 332 334 336 338 339 340 340 340 341 340
252 254 255 257 258 260 261 261 261 262 262 263 264 265 267 268 269 270 272 274 276 277 277 278 280 282 284 286 287 289 291 293 295 296 296 297 298 300 302 303 303 305 306 307 310 313 314 315 317 319 319 319 319 317 315 315 314 312 311 308 304 305 308 309 313 317 320 320 321 321 320 321 323 324 327 330 332 334 336 338 339 339 339 340 339
253 254 256 257 259 260 262 262 262 263 263 264 265 266 267 268 269 270 271 273 274 276 277 279 280 282 283 285 286 288 290 292 293 293 293 294 295 297 299 300 301 302 304 306 308 310 310 312 314 316 317 317 317 316 316 316 315 313 310 306 304 304 305 306 310 313 316 317 318 319 319 320 322 323 326 328 330 332 335 337 337 338 338 338 338
253 254 256 257 258 260 261 262 263 263 264 266 267 267 268 269 269 270 271 272 274 276 278 280 281 282 283 284 286 287 288 289 290 291 291 292 293 294 296 297 299 300 302 304 304 305 307 308 310 311 313 314 314 313 314 316 315 312 310 307 304 303 303 305 308 310 313 316 317 317 318 319 321 322 324 327 329 332 334 336 336 337 337 337 338
256 256 257 258 258 259 260 261 263 263 264 265 266 267 269 269 270 271 272 273 274 275 277 279 280 282 283 284 285 286 286 287 288 289 290 291 291 293 294 295 297 299 300 301 301 302 304 305 306 307 308 309 311 311 312 314 314 312 310 307 304 302 302 304 307 309 312 314 315 315 317 318 319 321 323 326 328 331 333 334 335 336 336 336 337
257 258 258 259 259 260 260 262 263 264 265 265 266 266 267 268 269 270 271 272 273 274 275 276 278 279 281 282 283 284 285 286 287 287 288 289 290 291 293 294 295 296 297 298 298 299 301 302 304 304 303 305 308 309 308 310 311 310 309 307 304 303 304 305 306 309 311 312 313 314 315 316 318 320 322 324 327 330 332 333 334 334 335 336 337
258 258 259 259 260 261 262 263 264 265 266 267 267 267 267 268 269 269 270 271 271 272 273 274 275 276 277 279 280 282 283 284 285 285 286 287 289 290 291 292 293 294 294 295 296 298 298 300 302 302 300 301 306 308 307 308 309 309 308 307 305 305 306 307 308 309 310 311 313 314 315 315 317 320 321 323 326 329 331 332 333 333 335 336 336
259 259 260 260 261 262 263 264 265 266 266 267 267 267 268 269 270 271 272 272 272 272 273 274 274 274 274 275 277 279 280 281 282 283 284 286 287 288 289 290 291 291 292 293 295 296 297 298 300 299 299 301 304 306 306 305 306 307 306 306 307 308 309 310 310 311 312 312 313 314 315 316 318 319 320 322 325 327 330 331 331 332 334 336 336
261 262 263 263 264 265 265 265 266 266 267 268 268 268 269 270 271 271 272 273 273 273 274 274 274 274 274 274 275 277 278 279 280 281 282 284 285 286 287 288 288 289 290 291 293 294 295 297 297 298 299 301 303 303 303 303 304 304 305 306 309 312 313 314 314 314 314 314 314 315 315 316 317 318 319 321 324 326 328 329 330 332 334 335 336
265 266 267 267 267 268 268 268 268 268 269 269 270 270 271 272 272 273 273 274 274 275 274 274 274 274 274 274 275 276 277 278 279 280 281 282 283 284 286 287 287 287 288 289 290 291 293 294 295 297 299 300 301 301 301 302 303 304 305 308 311 314 315 316 317 317 316 315 315 315 316 316 316 316 318 321 323 326 327 328 329 331 334 335 335
270 270 271 271 271 271 270 270 270 270 271 272 272 273 274 274 275 276 276 276 276 276 276 276 276 276 276 276 276 276 276 277 277 278 279 280 282 284 285 286 286 287 287 288 288 289 290 292 294 297 299 300 302 301 300 299 301 303 306 309 312 314 316 317 317 317 316 315 315 315 315 315 315 316 318 321 323 325 326 327 328 331 333 334 334
271 272 272 273 273 273 274 274 274 275 275 276 276 276 277 277 278 278 279 280 280 280 280 279 279 279 279 279 278 277 277 277 278 278 279 280 282 284 285 286 286 287 287 287 287 288 289 292 296 300 300 300 300 299 297 296 298 302 305 308 311 313 314 315 317 316 315 314 314 313 313 313 314 317 319 320 322 324 325 326 328 331 332 333 334
271 272 273 273 274 274 275 276 278 279 279 279 279 279 279 279 279 280 281 281 282 283 283 282 281 281 281 280 280 280 279 279 280 281 281 282 284 285 286 286 287 287 286 285 285 287 291 296 302 303 300 298 298 297 295 296 299 302 305 307 310 312 313 315 317 316 314 313 312 311 311 312 315 317 319 320 321 323 324 325 329 331 332 333 334
270 270 271 272 273 273 274 276 278 279 280 280 281 281 281 281 281 281 282 281 282 283 283 282 282 281 281 281 281 281 281 282 282 282 282 284 285 286 287 288 290 289 286 285 287 289 293 301 304 302 298 296 296 296 295 297 300 302 305 308 310 312 314 316 316 315 312 310 309 309 310 313 316 317 318 319 321 322 323 325 329 331 331 332 334
268 268 269 270 271 271 272 274 276 277 278 280 281 281 282 282 282 283 283 283 283 282 281 281 282 282 282 281 281 280 282 283 282 281 283 284 286 287 289 291 293 293 292 294 295 293 296 302 301 296 295 297 296 294 294 295 298 302 305 309 311 312 314 315 314 312 310 309 309 310 311 314 316 317 317 318 319 321 322 325 329 330 331 332 333
265 266 267 268 269 270 271 272 273 274 275 277 278 279 281 282 283 285 285 285 285 283 281 281 281 281 282 282 281 281 282 282 282 282 284 285 285 287 288 290 293 298 301 303 301 295 296 302 299 292 291 294 294 293 294 295 298 302 306 308 309 310 312 312 311 310 309 309 309 310 311 314 315 316 316 317 318 320 322 326 329 329 330 332 333
264 265 266 266 267 268 270 270 271 272 273 274 276 277 279 281 283 285 286 285 284 283 282 282 280 279 279 279 280 282 283 282 283 284 283 283 282 282 283 287 294 299 300 301 300 297 298 300 296 290 289 290 291 293 294 294 297 301 304 306 306 306 308 308 308 308 308 308 308 309 310 313 314 314 315 316 317 319 322 326 328 329 330 331 332
263 264 266 266 267 268 269 270 270 271 272 273 275 276 277 279 281 283 284 284 284 283 283 282 281 279 278 278 280 282 281 279 280 282 282 281 278 276 278 281 283 286 290 292 293 294 295 295 292 287 284 283 285 287 288 291 295 299 301 302 302 303 305 305 305 306 306 307 307 308 309 311 312 313 313 315 317 319 323 326 328 328 330 331 332
262 264 265 266 268 268 269 269 270 270 272 273 274 275 276 277 279 281 282 283 285 286 286 285 283 280 278 278 279 281 279 278 278 279 280 279 279 281 284 278 270 267 269 275 280 284 287 290 288 283 278 277 280 283 285 288 292 294 295 297 297 298 301 302 302 303 305 305 305 306 307 309 310 311 312 314 316 320 323 326 327 328 329 330 332
263 264 265 266 267 268 268 268 269 269 271 272 274 275 277 278 279 281 282 284 286 287 287 287 285 281 279 278 278 278 277 277 275 274 276 279 284 293 295 288 278 271 266 265 267 270 273 279 282 281 280 280 282 282 282 285 286 286 288 291 293 295 297 299 300 301 303 304 304 304 305 307 308 310 311 314 317 320 323 325 326 328 329 330 332
264 264 265 266 267 267 268 268 269 270 272 274 276 278 279 280 281 282 283 285 286 286 286 286 284 281 279 278 276 273 274 272 267 266 271 276 285 292 290 285 283 280 275 271 268 266 268 273 278 280 280 282 284 282 280 280 281 282 284 288 291 293 295 296 298 300 301 302 302 303 303 305 307 309 310 313 317 320 323 324 326 327 328 330 332
265 266 266 267 267 268 269 269 270 272 274 275 277 278 279 280 281 282 283 284 284 284 284 282 279 278 277 272 265 265 269 268 263 259 248 228 267 284 282 278 277 278 278 276 271 269 273 278 281 282 282 283 284 284 280 278 277 279 282 286 289 291 292 293 296 299 300 300 301 301 302 305 306 308 310 313 317 320 322 324 325 326 328 330 332
266 267 267 267 268 268 269 269 270 271 273 273 274 274 275 277 279 280 281 282 282 282 282 278 275 272 268 260 257 261 262 257 245 225 206 219 262 275 275 274 275 276 276 274 270 270 275 280 283 283 282 283 284 284 282 279 278 279 281 284 286 288 289 291 294 297 299 299 299 300 302 304 305 307 310 314 317 320 321 323 325 326 327 329 331
266 266 267 267 267 268 268 268 268 269 271 271 271 271 272 274 276 277 278 278 279 280 278 273 269 264 257 252 253 252 245 240 236 229 233 251 266 269 268 268 270 269 269 270 271 273 275 278 281 281 280 280 280 281 282 282 281 281 281 282 283 284 286 289 292 295 297 298 298 299 302 303 304 307 310 314 317 319 321 322 324 325 327 329 331
265 265 265 266 266 267 267 267 267 268 269 270 270 270 270 272 274 275 275 276 277 276 273 268 262 255 250 250 250 245 241 247 254 259 266 272 270 262 259 258 256 256 258 262 268 273 276 276 278 279 278 275 272 273 277 279 279 280 280 280 280 281 283 287 290 294 296 297 297 299 300 301 304 307 310 314 317 319 320 322 324 325 327 329 330
263 263 264 264 265 265 266 266 266 267 269 269 269 269 269 271 273 272 272 274 273 269 266 263 256 250 249 251 253 254 256 259 262 265 270 274 271 262 257 251 247 251 258 263 268 272 273 274 276 280 279 275 271 271 273 275 277 280 282 281 281 283 285 287 290 292 294 296 297 297 299 301 304 308 311 314 316 318 320 322 323 324 326 328 329
263 263 264 264 265 265 265 266 266 267 268 268 269 268 268 270 270 268 269 270 266 261 260 257 252 253 256 258 261 265 267 267 268 267 267 269 266 258 252 249 249 254 259 261 262 262 264 269 276 280 279 276 273 272 273 274 278 282 284 284 285 286 287 287 289 290 292 294 295 296 298 301 305 309 311 313 316 317 319 321 322 324 326 327 328
266 268 268 268 269 268 267 267 266 266 266 267 267 267 267 267 266 264 265 263 256 252 253 254 253 259 266 266 266 269 269 268 268 267 265 264 260 252 249 250 251 250 251 252 255 259 265 271 277 278 276 274 273 273 274 276 278 280 281 281 283 284 285 286 287 289 291 292 293 295 299 303 307 309 311 313 315 317 319 320 322 323 325 326 327
270 271 272 272 273 273 272 270 267 265 266 268 267 267 266 265 262 260 258 252 244 240 243 247 251 266 274 266 257 255 258 262 265 265 263 263 263 261 259 256 249 245 249 254 260 267 272 275 276 274 273 275 277 278 280 280 279 278 278 279 280 282 283 284 286 288 289 291 293 297 301 304 307 309 311 313 315 317 318 319 321 322 324 325 327
270 272 273 273 274 275 275 273 269 266 267 269 268 267 266 262 257 254 248 240 234 232 233 234 238 253 268 260 247 243 246 250 253 255 255 256 258 260 258 255 252 254 258 261 264 269 273 273 272 271 272 275 279 283 284 283 279 277 276 277 279 281 282 284 286 288 290 292 295 299 302 304 306 308 310 312 314 316 317 319 320 322 323 324 326
270 273 274 275 276 276 275 273 269 268 269 269 268 267 264 258 253 248 240 232 231 231 230 228 229 236 242 237 236 238 227 214 218 227 232 236 242 247 249 251 255 259 262 262 263 268 271 271 271 273 274 276 280 283 284 281 278 277 277 278 279 281 282 284 286 289 291 294 297 300 302 304 306 308 310 312 314 315 317 318 319 321 322 324 325
271 274 275 275 275 273 272 271 271 270 269 267 265 264 260 254 249 244 236 229 228 230 230 229 229 230 227 222 231 235 216 207 213 223 228 230 235 241 246 252 258 262 264 264 265 268 271 272 274 276 277 278 280 282 282 281 279 278 278 279 279 281 282 285 287 290 293 296 299 301 302 304 306 308 310 311 313 314 316 317 319 320 321 323 324
273 274 274 274 272 269 269 272 274 272 269 265 263 261 256 251 247 242 234 228 226 227 230 232 232 231 227 226 232 235 223 216 223 233 239 240 243 247 251 256 261 264 265 265 266 268 270 273 276 278 279 280 281 281 279 278 278 278 279 279 280 281 283 286 289 292 295 298 300 301 303 304 306 308 309 311 312 314 315 316 318 319 321 322 323
274 275 275 274 272 269 269 272 273 271 267 264 262 259 254 248 245 239 232 228 226 226 228 233 236 238 238 238 238 240 239 237 239 241 243 245 248 250 254 258 261 262 264 265 267 269 272 274 276 279 280 281 282 281 281 281 281 281 281 281 281 283 285 288 291 294 296 298 300 301 302 304 306 307 309 310 311 313 314 316 317 319 320 321 322
274 274 275 274 272 271 271 271 270 267 264 263 262 259 252 247 244 239 231 228 227 228 228 231 235 240 245 248 248 247 247 248 249 248 248 248 249 251 254 257 260 262 264 265 267 269 272 275 277 280 281 282 283 283 283 283 282 281 280 281 282 285 288 290 292 294 296 298 299 300 302 303 305 306 308 309 311 312 314 315 317 318 319 320 321
273 274 274 273 272 273 272 269 265 263 262 262 262 258 251 246 244 240 233 229 230 231 232 232 234 237 242 246 249 251 252 252 252 252 252 253 253 254 256 258 260 263 265 267 269 271 273 275 277 279 280 281 281 280 279 279 278 278 279 281 283 286 288 289 291 294 295 297 298 299 301 303 304 305 307 309 310 312 313 314 316 317 318 319 320
273 273 272 272 273 273 270 265 261 261 262 262 261 257 250 246 245 243 237 232 231 233 235 236 237 239 241 243 245 248 250 252 254 255 255 256 258 259 260 262 264 267 269 270 272 274 275 276 277 277 277 277 276 275 276 276 277 278 280 281 283 285 287 289 291 292 294 295 297 298 300 302 303 305 306 308 310 311 312 313 315 316 317 318 319
272 272 271 272 273 272 267 263 261 262 263 263 262 257 250 245 245 245 241 236 233 234 236 239 240 242 244 245 246 248 251 252 254 255 257 259 261 263 265 268 270 272 273 274 275 276 277 277 277 277 277 277 276 276 277 277 278 279 281 282 284 285 287 288 290 291 292 294 296 298 300 301 303 305 306 308 309 310 311 313 314 315 316 317 318
271 271 270 271 272 269 265 263 262 262 263 264 263 259 252 247 246 246 244 241 237 235 236 239 242 245 246 247 248 250 251 254 256 257 258 260 262 264 266 269 271 272 274 275 276 277 278 278 278 278 278 278 277 278 278 279 280 281 282 283 284 285 286 288 289 290 292 294 296 298 300 301 303 305 306 307 308 309 310 311 313 314 315 316 317
270 270 270 271 270 266 262 262 262 262 263 264 263 260 256 251 248 247 246 245 243 240 239 240 244 247 247 248 248 249 250 253 256 258 259 261 262 264 266 267 269 270 271 273 274 275 276 276 276 276 276 276 277 278 278 279 280 281 281 282 283 284 285 287 289 291 293 295 297 299 300 302 303 304 305 306 307 308 309 310 312 313 314 315 316
270 271 271 272 268 261 259 260 262 262 264 264 264 262 258 253 250 250 249 247 246 245 242 242 244 247 248 249 248 249 250 251 253 255 256 258 260 262 264 266 267 268 270 271 272 273 274 274 274 274 275 276 277 277 278 279 279 279 280 281 282 284 286 288 290 292 294 296 297 299 300 301 302 303 304 305 306 307 308 310 311 312 313 314 314